�������l�o���
Date,Time,MP-1(��Sv/h),MP-2(��Sv/h),MP-3(��Sv/h),MP-4(��Sv/h),MP-5(��Sv/h),MP-6(��Sv/h),MP-7(��Sv/h),MP-8(��Sv/h),����,����(m/s),���J
2019/03/03,00:00,0.770,1.134,0.786,1.463,1.053,0.440,0.783,0.742,��,5.7,��
2019/03/03,00:10,0.771,1.135,0.786,1.464,1.052,0.440,0.785,0.742,��,5.1,��
2019/03/03,00:20,0.771,1.134,0.787,1.464,1.052,0.438,0.784,0.742,���k��,5.3,��
2019/03/03,00:30,0.770,1.133,0.785,1.461,1.053,0.441,0.782,0.744,���k��,5.5,��
2019/03/03,00:40,0.771,1.132,0.785,1.463,1.053,0.441,0.783,0.744,���k��,5.4,��
2019/03/03,00:50,0.770,1.133,0.785,1.464,1.052,0.440,0.785,0.743,���k��,5.8,��
2019/03/03,01:00,0.770,1.133,0.785,1.465,1.050,0.440,0.784,0.742,��,6.4,��
2019/03/03,01:10,0.768,1.134,0.784,1.463,1.051,0.440,0.783,0.744,��,7.1,��
2019/03/03,01:20,0.771,1.133,0.784,1.464,1.052,0.440,0.783,0.743,��,7.4,��
2019/03/03,01:30,0.770,1.134,0.785,1.464,1.051,0.439,0.784,0.744,��,7.6,��
2019/03/03,01:40,0.770,1.132,0.786,1.464,1.053,0.440,0.784,0.744,��,7.5,��
2019/03/03,01:50,0.773,1.132,0.787,1.463,1.051,0.439,0.784,0.744,��,7.1,��
2019/03/03,02:00,0.770,1.133,0.786,1.466,1.053,0.439,0.786,0.743,��,7.3,��
2019/03/03,02:10,0.770,1.134,0.787,1.464,1.053,0.441,0.785,0.745,��,7.4,��
2019/03/03,02:20,0.769,1.134,0.786,1.464,1.052,0.441,0.783,0.743,��,7.8,��
2019/03/03,02:30,0.770,1.131,0.786,1.463,1.054,0.440,0.786,0.743,��,7.4,��
2019/03/03,02:40,0.773,1.132,0.785,1.464,1.053,0.440,0.784,0.744,��,7.0,��
2019/03/03,02:50,0.770,1.132,0.785,1.464,1.052,0.440,0.784,0.744,��,6.5,��
2019/03/03,03:00,0.770,1.134,0.787,1.466,1.050,0.440,0.781,0.742,��,6.2,��
2019/03/03,03:10,0.771,1.132,0.786,1.465,1.052,0.439,0.785,0.743,��,6.1,��
2019/03/03,03:20,0.771,1.133,0.786,1.464,1.051,0.439,0.784,0.743,��,5.5,��
2019/03/03,03:30,0.770,1.132,0.786,1.464,1.050,0.440,0.784,0.744,��,5.1,��
2019/03/03,03:40,0.771,1.136,0.785,1.462,1.051,0.439,0.785,0.744,���k��,4.1,��
2019/03/03,03:50,0.772,1.133,0.786,1.463,1.051,0.441,0.783,0.742,���k��,1.5,��
2019/03/03,04:00,0.771,1.130,0.785,1.463,1.052,0.439,0.784,0.742,��,2.6,��
2019/03/03,04:10,0.772,1.133,0.785,1.465,1.054,0.440,0.784,0.743,���쐼,0.9,��
2019/03/03,04:20,0.770,1.135,0.784,1.465,1.050,0.441,0.783,0.743,�쓌,0.9,��
2019/03/03,04:30,0.771,1.131,0.786,1.465,1.052,0.441,0.783,0.743,��쓌,1.7,��
2019/03/03,04:40,0.770,1.134,0.787,1.463,1.051,0.437,0.784,0.743,��쐼,2.0,��
2019/03/03,04:50,0.769,1.130,0.784,1.465,1.051,0.440,0.782,0.742,��,1.2,��
2019/03/03,05:00,0.770,1.131,0.785,1.463,1.052,0.441,0.782,0.742,��쐼,1.5,��
2019/03/03,05:10,0.769,1.131,0.784,1.462,1.050,0.439,0.783,0.743,��쐼,1.7,��
2019/03/03,05:20,0.771,1.136,0.784,1.462,1.052,0.440,0.782,0.743,��쐼,1.2,��
2019/03/03,05:30,0.770,1.132,0.786,1.465,1.050,0.440,0.782,0.742,��쓌,1.7,��
2019/03/03,05:40,0.768,1.133,0.786,1.463,1.052,0.440,0.784,0.743,�쓌,1.7,��
2019/03/03,05:50,0.770,1.132,0.785,1.464,1.050,0.439,0.782,0.743,���쓌,1.2,��
2019/03/03,06:00,0.770,1.133,0.785,1.463,1.051,0.440,0.784,0.743,�쓌,0.9,��
2019/03/03,06:10,0.770,1.133,0.786,1.462,1.050,0.438,0.782,0.742,�쐼,0.6,��
2019/03/03,06:20,0.770,1.130,0.785,1.463,1.052,0.439,0.782,0.741,-,CALM,��
2019/03/03,06:30,0.769,1.132,0.784,1.463,1.053,0.441,0.783,0.743,��쐼,0.9,��
2019/03/03,06:40,0.769,1.132,0.786,1.465,1.050,0.440,0.782,0.743,��쐼,0.6,��
2019/03/03,06:50,0.769,1.133,0.786,1.465,1.052,0.438,0.782,0.743,�쐼,0.6,��
2019/03/03,07:00,0.768,1.133,0.786,1.463,1.051,0.441,0.783,0.743,-,CALM,��
2019/03/03,07:10,0.769,1.130,0.785,1.465,1.051,0.439,0.782,0.742,���쐼,0.8,��
2019/03/03,07:20,0.769,1.131,0.785,1.464,1.050,0.440,0.785,0.743,�쐼,0.6,��
2019/03/03,07:30,0.771,1.132,0.786,1.464,1.051,0.441,0.783,0.742,��쐼,0.9,��
2019/03/03,07:40,0.771,1.134,0.784,1.464,1.052,0.439,0.784,0.742,��,0.6,��
2019/03/03,07:50,0.771,1.133,0.786,1.465,1.051,0.442,0.784,0.744,��쐼,0.8,��
2019/03/03,08:00,0.770,1.134,0.785,1.464,1.053,0.441,0.784,0.743,��쐼,0.6,��
2019/03/03,08:10,0.771,1.134,0.787,1.465,1.053,0.440,0.785,0.745,���쐼,0.8,��
2019/03/03,08:20,0.774,1.135,0.786,1.464,1.052,0.441,0.785,0.744,���쐼,0.9,��
2019/03/03,08:30,0.772,1.135,0.787,1.466,1.052,0.442,0.785,0.744,���쐼,0.9,��
2019/03/03,08:40,0.770,1.134,0.785,1.465,1.054,0.441,0.787,0.744,��쓌,0.8,��
2019/03/03,08:50,0.771,1.136,0.787,1.467,1.053,0.441,0.787,0.744,���쓌,0.6,��
2019/03/03,09:00,0.772,1.135,0.788,1.467,1.054,0.440,0.787,0.744,��,1.4,��
2019/03/03,09:10,0.772,1.135,0.787,1.463,1.056,0.442,0.783,0.743,���쓌,1.1,��
2019/03/03,09:20,0.771,1.134,0.787,1.464,1.055,0.441,0.783,0.744,�쓌,0.8,��
2019/03/03,09:30,0.774,1.134,0.787,1.466,1.053,0.442,0.785,0.745,���쓌,0.9,��
2019/03/03,09:40,0.773,1.135,0.788,1.467,1.053,0.440,0.783,0.745,��,1.4,��
2019/03/03,09:50,0.775,1.136,0.786,1.463,1.056,0.443,0.783,0.744,��쓌,1.2,��
2019/03/03,10:00,0.775,1.137,0.786,1.469,1.055,0.442,0.783,0.745,�쓌,1.5,��
2019/03/03,10:10,0.773,1.135,0.787,1.469,1.052,0.443,0.783,0.745,��,2.2,��
2019/03/03,10:20,0.773,1.135,0.789,1.466,1.055,0.441,0.784,0.746,��쓌,2.0,��
2019/03/03,10:30,0.774,1.133,0.787,1.466,1.058,0.440,0.783,0.746,��,2.2,��
2019/03/03,10:40,0.775,1.134,0.788,1.467,1.059,0.443,0.784,0.745,��쓌,3.1,��
2019/03/03,10:50,0.774,1.134,0.791,1.465,1.059,0.441,0.785,0.745,��쓌,2.8,��
2019/03/03,11:00,0.775,1.135,0.788,1.468,1.055,0.440,0.784,0.745,��쓌,2.6,��
2019/03/03,11:10,0.778,1.133,0.790,1.468,1.056,0.441,0.782,0.744,��쓌,2.0,��
2019/03/03,11:20,0.775,1.134,0.789,1.468,1.055,0.441,0.785,0.741,�쓌,1.5,��
2019/03/03,11:30,0.775,1.135,0.787,1.468,1.041,0.441,0.784,0.742,��쓌,1.7,��
2019/03/03,11:40,0.776,1.136,0.789,1.468,1.037,0.443,0.785,0.744,�쓌,1.9,��
2019/03/03,11:50,0.775,1.135,0.790,1.468,1.037,0.443,0.785,0.743,�쓌,2.3,��
2019/03/03,12:00,0.776,1.134,0.790,1.467,1.040,0.443,0.784,0.744,�쓌,2.6,��
2019/03/03,12:10,0.778,1.138,0.789,1.468,1.042,0.442,0.785,0.746,�쓌,2.2,��
2019/03/03,12:20,0.778,1.136,0.789,1.470,1.053,0.443,0.785,0.745,��쓌,3.0,��
2019/03/03,12:30,0.778,1.137,0.791,1.467,1.052,0.443,0.784,0.746,�쓌,2.8,��
2019/03/03,12:40,0.777,1.138,0.792,1.467,1.048,0.441,0.785,0.745,��쓌,3.2,��
2019/03/03,12:50,0.778,1.139,0.790,1.467,1.043,0.443,0.785,0.746,��쓌,4.2,��
2019/03/03,13:00,0.777,1.141,0.790,1.467,1.054,0.444,0.785,0.746,��쓌,5.5,��
2019/03/03,13:10,0.777,1.136,0.793,1.466,1.057,0.443,0.785,0.746,��쓌,5.4,��
2019/03/03,13:20,0.777,1.139,0.790,1.468,1.056,0.444,0.787,0.745,��쓌,4.8,��
2019/03/03,13:30,0.779,1.138,0.791,1.468,1.055,0.442,0.785,0.744,��쓌,4.4,��
2019/03/03,13:40,0.775,1.139,0.790,1.468,1.057,0.445,0.783,0.746,��쓌,5.4,��
2019/03/03,13:50,0.775,1.140,0.789,1.466,1.056,0.443,0.785,0.744,��쓌,4.7,��
2019/03/03,14:00,0.778,1.142,0.791,1.471,1.057,0.443,0.786,0.744,��쓌,4.6,��
2019/03/03,14:10,0.776,1.142,0.788,1.470,1.056,0.444,0.784,0.745,��,5.1,��
2019/03/03,14:20,0.778,1.142,0.791,1.471,1.058,0.443,0.785,0.747,��,4.8,��
2019/03/03,14:30,0.778,1.143,0.790,1.469,1.059,0.447,0.786,0.746,��쓌,4.9,��
2019/03/03,14:40,0.778,1.143,0.789,1.469,1.060,0.444,0.786,0.744,��,3.3,��
2019/03/03,14:50,0.778,1.144,0.790,1.470,1.059,0.444,0.784,0.745,��,5.1,��
2019/03/03,15:00,0.777,1.143,0.789,1.469,1.062,0.445,0.785,0.744,��,7.7,�L
2019/03/03,15:10,0.778,1.146,0.791,1.470,1.060,0.445,0.785,0.745,��,8.0,�L
2019/03/03,15:20,0.775,1.141,0.789,1.468,1.060,0.445,0.785,0.746,��,7.3,�L
2019/03/03,15:30,0.777,1.143,0.790,1.470,1.059,0.444,0.786,0.745,��,6.9,�L
2019/03/03,15:40,0.776,1.141,0.790,1.465,1.055,0.445,0.782,0.744,��쐼,5.9,�L
2019/03/03,15:50,0.775,1.138,0.788,1.466,1.053,0.446,0.783,0.743,��쐼,4.8,�L
2019/03/03,16:00,0.775,1.136,0.789,1.464,1.053,0.445,0.785,0.744,�쐼,4.1,�L
2019/03/03,16:10,0.773,1.134,0.787,1.465,1.052,0.445,0.781,0.744,�쐼,3.7,�L
2019/03/03,16:20,0.775,1.134,0.786,1.464,1.054,0.444,0.784,0.744,�쐼,3.6,�L
2019/03/03,16:30,0.772,1.133,0.787,1.463,1.051,0.443,0.783,0.742,�쐼,3.4,�L
2019/03/03,16:40,0.773,1.133,0.787,1.464,1.051,0.446,0.784,0.742,�쐼,2.9,�L
2019/03/03,16:50,0.775,1.134,0.786,1.463,1.051,0.445,0.784,0.743,�쐼,2.5,�L
2019/03/03,17:00,0.772,1.132,0.788,1.466,1.052,0.444,0.785,0.744,��쐼,2.3,�L
2019/03/03,17:10,0.774,1.131,0.788,1.463,1.052,0.445,0.784,0.743,��쐼,0.9,�L
2019/03/03,17:20,0.771,1.132,0.787,1.464,1.050,0.443,0.783,0.742,��,0.6,�L
2019/03/03,17:30,0.773,1.131,0.786,1.464,1.049,0.445,0.783,0.741,-,CALM,�L
2019/03/03,17:40,0.771,1.130,0.786,1.462,1.049,0.443,0.786,0.744,��쐼,0.8,�L
2019/03/03,17:50,0.771,1.133,0.785,1.463,1.049,0.444,0.782,0.742,��쐼,0.9,�L
2019/03/03,18:00,0.772,1.131,0.786,1.464,1.049,0.443,0.783,0.741,���쐼,0.6,�L
2019/03/03,18:10,0.772,1.131,0.788,1.460,1.048,0.444,0.785,0.742,��쐼,0.9,�L
2019/03/03,18:20,0.770,1.130,0.785,1.462,1.048,0.443,0.784,0.742,�쐼,1.5,�L
2019/03/03,18:30,0.771,1.131,0.787,1.463,1.046,0.442,0.785,0.743,�쐼,1.2,�L
2019/03/03,18:40,0.772,1.130,0.784,1.462,1.047,0.442,0.786,0.742,�쐼,1.2,�L
2019/03/03,18:50,0.770,1.132,0.787,1.463,1.048,0.443,0.784,0.744,�쐼,1.4,�L
2019/03/03,19:00,0.772,1.130,0.785,1.461,1.048,0.443,0.783,0.743,��쐼,2.0,�L
2019/03/03,19:10,0.773,1.128,0.786,1.463,1.048,0.443,0.783,0.742,��,3.3,�L
2019/03/03,19:20,0.770,1.127,0.786,1.460,1.048,0.442,0.784,0.743,��,3.4,�L
2019/03/03,19:30,0.772,1.128,0.784,1.463,1.047,0.443,0.784,0.742,��,2.6,�L
2019/03/03,19:40,0.772,1.130,0.786,1.461,1.045,0.442,0.785,0.742,��,2.3,�L
2019/03/03,19:50,0.772,1.129,0.785,1.461,1.047,0.443,0.783,0.742,��,2.6,�L
2019/03/03,20:00,0.772,1.129,0.787,1.464,1.045,0.442,0.784,0.741,��,2.5,�L
2019/03/03,20:10,0.771,1.128,0.783,1.460,1.045,0.442,0.783,0.741,��쐼,2.6,�L
2019/03/03,20:20,0.771,1.125,0.784,1.460,1.044,0.443,0.784,0.742,�쐼,1.4,�L
2019/03/03,20:30,0.769,1.127,0.783,1.459,1.045,0.440,0.782,0.738,��,0.6,�L
2019/03/03,20:40,0.770,1.125,0.785,1.460,1.043,0.442,0.781,0.740,-,CALM,�L
2019/03/03,20:50,0.769,1.124,0.784,1.461,1.043,0.442,0.782,0.740,��쐼,1.7,�L
2019/03/03,21:00,0.770,1.125,0.784,1.463,1.040,0.443,0.781,0.740,��쐼,1.5,�L
2019/03/03,21:10,0.770,1.125,0.783,1.459,1.043,0.442,0.779,0.741,��쐼,2.2,�L
2019/03/03,21:20,0.769,1.124,0.784,1.461,1.041,0.440,0.781,0.740,��,1.7,�L
2019/03/03,21:30,0.768,1.125,0.783,1.458,1.042,0.440,0.779,0.739,���쐼,1.5,�L
2019/03/03,21:40,0.769,1.124,0.782,1.459,1.042,0.443,0.781,0.740,�쐼,2.8,�L
2019/03/03,21:50,0.768,1.125,0.781,1.459,1.043,0.442,0.781,0.740,��쐼,3.0,�L
2019/03/03,22:00,0.770,1.124,0.781,1.460,1.042,0.441,0.781,0.740,��쐼,3.8,�L
2019/03/03,22:10,0.768,1.124,0.781,1.460,1.041,0.442,0.781,0.740,��쐼,3.8,�L
2019/03/03,22:20,0.769,1.120,0.782,1.458,1.039,0.442,0.780,0.740,��쐼,3.5,�L
2019/03/03,22:30,0.769,1.123,0.784,1.459,1.039,0.441,0.781,0.739,��쐼,3.1,�L
2019/03/03,22:40,0.767,1.122,0.783,1.457,1.038,0.441,0.782,0.739,��,2.2,�L
2019/03/03,22:50,0.767,1.121,0.782,1.458,1.037,0.442,0.781,0.738,��,1.2,�L
2019/03/03,23:00,0.768,1.120,0.783,1.458,1.038,0.441,0.781,0.739,��,1.1,�L
2019/03/03,23:10,0.767,1.120,0.782,1.457,1.037,0.442,0.779,0.739,��,0.9,�L
2019/03/03,23:20,0.766,1.117,0.782,1.455,1.035,0.440,0.781,0.741,��쐼,0.9,�L
2019/03/03,23:30,0.765,1.119,0.781,1.454,1.038,0.439,0.781,0.738,�쐼,0.9,�L
2019/03/03,23:40,0.768,1.118,0.783,1.457,1.037,0.441,0.780,0.738,�쐼,1.2,�L
2019/03/03,23:50,0.768,1.118,0.780,1.455,1.037,0.440,0.781,0.738,-,CALM,�L
